PROFILE

 METAR AND TAF INFORMATION
ADDS - METARS form results

(1217 UTC 26 March 2019)
http://aviationweather.gov/metar/data/
 
LEPA 261200Z 05018KT CAVOK 16/M01 Q1020 NOSIG
LEPA 261130Z 05019G29KT 020V080 CAVOK 16/M03 Q1020 NOSIG
TAF LEPA 261100Z 2612/2712 03020KT CAVOK TX16/2613Z TN07/2706Z TEMPO 2612/2617 03020G35KT BECMG 2617/2619 VRB04KT TEMPO 2703/2706 02007KT BECMG 2708/2710 05012KT 

 AIRPORT MAP

 RUNWAY INFORMATION
Runway 06L Runway length 10728 ft Runway width 148 ft
Runway elevation 15 ft Runway displaced threshold 0 ft Runway heading 59
Runway 24R Runway length 10728 ft Runway width 148 ft
Runway elevation 8 ft Runway displaced threshold 230 ft Runway heading 239
Runway 06R Runway length 9842 ft Runway width 148 ft
Runway elevation 24 ft Runway displaced threshold 1345 ft Runway heading 59
Runway 24L Runway length 9842 ft Runway width 148 ft
Runway elevation 8 ft Runway displaced threshold 0 ft Runway heading 239

 AIRPORT FREQUENCIES
Type APP Name APP Frequency 118.95 MHZ
Type ATIS Name ATIS Frequency 119.25 MHZ
Type CLD Name CLNC DEL Frequency 121.6 MHZ
Type GND Name GND Frequency 121.7 MHZ
Type OPS Name OPS Frequency 130.25 MHZ
Type TWR Name TWR Frequency 118.3 MHZ

 AIRPORT NEAR NAVIGATION AIDS